Skip Page Navigation
NASA JPL Caltech
NASA Logo - Jet Propulsion Laboratory + View the NASA Portal
+ Center for Near-Earth Object Studies
JPL Home Earth Solar System Stars & Galaxies Technology
JPL Solar System Dynamics
BODIES ORBITS EPHEMERIDES TOOLS PHYSICAL DATA DISCOVERY FAQ SITE MAP
JPL Small-Body Database Browser
Search: [ help ]  
21350 Billgardner (1997 EN32)
Classification: Main-belt Asteroid          SPK-ID: 2021350
Ephemeris | Orbit Diagram | Orbital Elements | Mission Design | Physical Parameters | Discovery Circumstances ]

[ show orbit diagram ]
Orbital Elements at Epoch 2459396.5 (2021-Jul-01.0) TDB
Reference: JPL 24 (heliocentric ecliptic J2000)
 Element Value Uncertainty (1-sigma)   Units 
e .09017367638193968 4.0656e-08  
a 2.723794829831744 1.2885e-08 au
q 2.478180236315696 1.123e-07 au
i 4.033353966580114 5.7599e-06 deg
node 5.956451792437967 5.5502e-05 deg
peri 69.11853030771684 6.4495e-05 deg
M 245.5464092987055 3.3035e-05 deg
tp 2459918.519750848913
(2022-Dec-05.01975085)
0.00015214 TDB
period 1641.950323743607
4.50
1.1651e-05
3.19e-08
d
yr
n .2192514565113083 1.5558e-09 deg/d
Q 2.969409423347793 1.4047e-08 au
  Orbit Determination Parameters
   # obs. used (total)      1172  
   data-arc span      10372 days (28.40 yr)  
   first obs. used      1992-01-30  
   last obs. used      2020-06-23  
   planetary ephem.      DE441  
   SB-pert. ephem.      SB441-N16  
   condition code      0  
   norm. resid. RMS      .54069  
   source      ORB  
   producer      Otto Matic  
   solution date      2021-Jul-08 18:32:43  

Additional Information
 Earth MOID = 1.49644 au 
 Jupiter MOID = 2.23652 au 
 T_jup = 3.348 
[ show covariance matrix ]

Ephemeris | Orbit Diagram | Orbital Elements | Mission Design | Physical Parameters | Discovery Circumstances ]

Physical Parameter Table
Parameter Symbol Value Units Sigma Reference Notes
absolute magnitude H 14.8   n/a MPO337438  
diameter diameter 3.189 km 0.480 urn:nasa:pds:neowise_diameters_albedos::2.0[mainbelt] (http://adsabs.harvard.edu/abs/2011ApJ...741...68M)  
geometric albedo albedo 0.229   0.103 urn:nasa:pds:neowise_diameters_albedos::2.0[mainbelt] (http://adsabs.harvard.edu/abs/2011ApJ...741...68M)  

21350 Billgardner           Discovered 1997 Mar. 11 by Spacewatch at Kitt Peak.
William David Anstruther Gardner (b. 1974) is an amateur astronomer in Ingersoll, Ontario, active in the Royal Astronomical Society of Canada, London Centre. Name suggested by R. and P. Jedicke.
NOTE: some special characters may not display properly (any characters within {} are an attempt to place the proper accent above a character)
Reference: MPC batch dated 2016-06-20Last Updated: 2016-06-21

Alternate Designations
 1997 EN32 = 1999 RB95 
Ephemeris | Orbit Diagram | Orbital Elements | Mission Design | Physical Parameters | Discovery Circumstances ]
ABOUT SSD CREDITS/AWARDS PRIVACY/COPYRIGHT GLOSSARY LINKS
FirstGov 2021-Aug-01 05:54 UT
(server date/time)  
NASA Home Page
Site Manager:   Ryan S. Park
Webmaster  Alan B. Chamberlin